Location: Kellogg
(38.0159°N, 90.0546°W)
Time: 22:09:10
(UTC+00:00)

S-56A Canister/Altair - Visible Passes

Search period start: 11 September 2024 00:00
Search period end: 21 September 2024 00:00
Orbit: 637 x 2487 km, 38.9° (Epoch: 10 September)

Date Brightness Start Highest point End Pass type
(mag) Time Alt. Az. Time Alt. Az. Time Alt. Az.
11 Sep 8.5 02:05:27 10° WSW 02:12:05 77° SSE 02:17:24 30° E visible
11 Sep 9.3 04:08:48 10° W 04:14:42 57° W 04:14:42 57° W visible
11 Sep11.206:38:44ESE06:38:44ESE06:12:01WNWvisible
11 Sep 10.8 08:36:12 24° S 08:36:12 24° S 08:41:43 10° SSE visible
11 Sep 11.1 10:33:39 11° SW 10:33:39 11° SW 10:36:18 10° SW visible
12 Sep 8.4 01:31:57 10° WSW 01:38:06 70° SSE 01:45:03 19° E visible
12 Sep 8.8 03:35:06 10° W 03:42:21 80° WNW 03:42:21 80° WNW visible
12 Sep 10.9 05:38:50 10° WNW 05:39:40 14° WNW 05:39:40 14° WNW visible
12 Sep 11.3 08:05:34 15° SSE 08:05:34 15° SSE 08:07:26 10° SSE visible
12 Sep 11.2 10:03:00 12° SSW 10:03:00 12° SSW 10:05:02 10° SSW visible
13 Sep 8.3 00:58:30 10° SW 01:04:13 63° SSE 01:12:40 10° ENE visible
13 Sep 8.7 03:01:26 10° W 03:08:41 85° N 03:09:59 70° ENE visible
13 Sep 10.4 05:05:02 10° WNW 05:07:17 22° W 05:07:17 22° W visible
13 Sep 11.3 09:32:10 10° SSW 09:32:10 10° SSW 09:32:20 10° SSW visible
14 Sep 8.3 00:25:05 10° SW 00:30:24 54° SSE 00:38:08 10° ENE visible
14 Sep 8.5 02:27:49 10° W 02:34:32 86° N 02:37:34 47° E visible
14 Sep 10.0 04:31:17 10° W 04:34:52 33° W 04:34:52 33° W visible
15 Sep 8.3 01:54:15 10° W 02:00:28 87° N 02:05:10 31° E visible
15 Sep 9.4 03:57:35 10° W 04:02:27 48° W 04:02:27 48° W visible
16 Sep 8.2 01:20:40 10° W 01:26:28 90° S 01:32:44 20° E visible
16 Sep 8.8 03:23:55 10° W 03:30:02 71° W 03:30:02 71° W visible
17 Sep 8.0 00:47:07 10° WSW 00:52:33 85° SSE 01:00:19 11° E visible
17 Sep 8.5 02:50:17 10° W 02:57:04 88° N 02:57:37 80° E visible
17 Sep 10.6 04:53:43 10° WNW 04:54:54 16° W 04:54:54 16° W visible
18 Sep 8.3 02:16:40 10° W 02:22:58 86° N 02:25:11 53° E visible
18 Sep 10.2 04:19:58 10° WNW 04:22:29 25° W 04:22:29 25° W visible
19 Sep 8.2 01:43:04 10° W 01:48:56 84° N 01:52:47 34° E visible
19 Sep 9.6 03:46:17 10° WNW 03:50:05 37° W 03:50:05 37° W visible
20 Sep 8.1 01:09:29 10° W 01:14:58 83° N 01:20:23 21° E visible
20 Sep 8.9 03:12:38 10° W 03:17:42 56° WSW 03:17:42 56° WSW visible
